Voltar ao catálogo

SL-16 DEB

AtivoLEO
NORAD 22613·DEBRIS·🇷🇺 Russia

Lançado Mar 26, 1993 de Baikonur Cosmodrome

Loading…

Próximas Passagens (próximas 24 horas)

TLE

AtualizadoSource: Space-Track

Época: Sep 14, 2026, 12:23 UTC

1 22613U 93016X   26257.51620818  .00000270  00000-0  27259-3 0  9993
2 22613  70.9982  86.2446 0192707  37.2541 344.5958 13.77673655677276

Acompanhe SL-16 DEB em tempo real com AllMySat

Download on the App Store